This is the latest recevied weather packets stored in our database for station/object VA3JLF-1. If no packets are shown the sender has not sent any weather packets the latest 10 day(s).
| Time | Temp. | Humidity | Pressure | Rain* | Wind** | Luminosity | Snow |
|---|---|---|---|---|---|---|---|
| 1777598157 | 5.56° C | 84% | 1008.7 hPa | 0 mm | - | - | - |
| 1777597557 | 6.11° C | 83% | 1008.4 hPa | 0 mm | - | - | - |
| 1777596959 | 6.11° C | 83% | 1008.3 hPa | 0 mm | - | - | - |
| 1777596358 | 6.67° C | 82% | 1008.2 hPa | 0 mm | - | - | - |
| 1777595759 | 6.67° C | 81% | 1008.4 hPa | 0 mm | - | - | - |
| 1777595159 | 7.22° C | 79% | 1008.1 hPa | 0 mm | - | - | - |
| 1777594557 | 7.22° C | 78% | 1007.9 hPa | 0 mm | - | - | - |
| 1777593957 | 7.78° C | 77% | 1007.9 hPa | 0 mm | - | - | - |
| 1777593357 | 7.78° C | 74% | 1007.5 hPa | 0 mm | - | - | - |
| 1777592757 | 8.89° C | 71% | 1007.5 hPa | 0 mm | - | - | - |
| 1777592158 | 8.89° C | 66% | 1007.5 hPa | 0 mm | - | - | - |
| 1777591559 | 8.89° C | 66% | 1007.5 hPa | 0 mm | - | - | - |
| 1777590959 | 9.44° C | 68% | 1007.5 hPa | 0 mm | - | - | - |
| 1777590357 | 9.44° C | 68% | 1007.5 hPa | 0 mm | - | - | - |
| 1777589758 | 9.44° C | 72% | 1007.5 hPa | 0 mm | - | - | - |
| 1777589157 | 9.44° C | 77% | 1007.5 hPa | 0 mm | - | - | - |
| 1777588559 | 9.44° C | 74% | 1007.3 hPa | 0 mm | - | - | - |
| 1777587959 | 9.44° C | 77% | 1007.4 hPa | 0 mm | - | - | - |
| 1777587357 | 9.44° C | 79% | 1007.5 hPa | 0 mm | - | - | - |
| 1777586758 | 8.89° C | 81% | 1007.1 hPa | 0 mm | - | - | - |
| 1777586159 | 8.89° C | 82% | 1007.1 hPa | 0 mm | - | - | - |
| 1777585558 | 8.89° C | 82% | 1007 hPa | 0 mm | - | - | - |
| 1777584958 | 8.89° C | 83% | 1007.1 hPa | 0 mm | - | - | - |
| 1777584358 | 8.89° C | 84% | 1006.9 hPa | 0 mm | - | - | - |
| 1777583760 | 8.89° C | 81% | 1006.7 hPa | 0 mm | - | - | - |
* Rain latest hour (hover to see other rain measurements)
** Current wind speed in m/s (hover to see current wind gust speed)